Погода в Тишковке

Украина / Кировоградская область     48°53′11″N   31°43′39″E
темп.,
°C
ветер,
м/с
пор.,
м/с
влажн.,
%
обл.,
%
осадки,
мм/ч
давл.,
гПа
погр.,
м
13 апреля, вт
вт1300:00+9юв1184100 0.0 102017
03:00+9ююв2286100 0.0 102046
06:00+8ююв2387100 0.0 102068
09:00+9юв3580100 0.0 1020318
12:00+13ююв5667100 0.0 10201129
15:00+12ю5669100 0.1 10191014
18:00+10ю4676100 0.0 1019566
21:00+9ююв3684100 0.0 1019320
14 апреля, ср
ср1400:00+9ю3681100 0.0 1018204
03:00+8ю3781100 0.0 1017248
06:00+8ю368898 0.0 1017257
09:00+9ю347592 0.0 1017510
12:00+13ю455658 0.0 10161331
15:00+15ю5645100 0.0 10141989
18:00+12ю3462100 0.0 1014428
21:00+10в2269100 0.0 101424
15 апреля, чт
чт1500:00+10всв3677100 0.0 1012129
03:00+9ююв358099 0.0 1012172
06:00+8вюв2388100 0.2 1012107
09:00+8вюв3691100 1.1 1012401
12:00+10юв2378100 0.3 1011709
15:00+9вюв2486100 0.8 1011431
18:00+8ююв2492100 1.0 1010299
21:00+8ю3495100 3.1 1010258
16 апреля, пт
пт1600:00+7ю4794100 1.6 1010362
03:00+5ююв5890100 2.0 1010398
06:00+5ююв479094 0.0 1010478
09:00+5ююв4587100 0.0 1011655
12:00+4ююв5695100 0.1 1012704
15:00+4ююв5896100 0.8 1013683
18:00+5ююв4783100 0.2 1014859
21:00+5ююв3686100 0.3 1015644
17 апреля, сб
сб1700:00+4ю2592100 0.5 1016327
03:00+5в3692100 0.7 1017496
06:00+5вюв479199 0.3 1018676
09:00+6юв358386 0.3 1019696
12:00+7юв347698 0.1 1020874
15:00+7ююв2382100 0.2 1020513
18:00+8ююв127782 0.0 1020674
21:00+6юв118235 0.0 102111